This demonstration page uses our WeatherBlox Daily Observations layout. Learn more.

Left ArrowRight Arrow

44.89941, -97.11507

Hourly Observations for August 17, 2022

Temp ( °F °C ) Dew Point ( °F °C ) Humidity (%) Winds ( mph kmh ) Pressure ( in mb ) Visibility ( mi km ) Precip ( " mm )
1:53 am 01:53 Partly Cloudy 63 17.2 60 15.6 90 90 SSW 6 9 30.12 1020 10 16 0.00 0.00
2:53 am 02:53 Mostly Clear 63 17.2 60 15.6 90 90 S 5 7 30.11 1020 10 16 0.00 0.00
3:53 am 03:53 Clear 63 17.2 61 16.1 93 93 SSW 6 9 30.11 1020 10 16 0.00 0.00
4:53 am 04:53 Clear 62 16.7 60 15.6 93 93 SSW 8 13 30.12 1020 10 16 0.00 0.00
5:53 am 05:53 Clear 62 16.7 61 16.1 96 96 SSW 7 11 30.13 1020 10 16 0.00 0.00
6:53 am 06:53 Sunny 62 16.7 60 15.6 93 93 SSW 6 9 30.14 1021 10 16 0.00 0.00
7:53 am 07:53 Sunny 63 17.2 61 16.1 93 93 SSW 6 9 30.16 1021 10 16 0.00 0.00
8:53 am 08:53 Sunny 67 19.4 62 16.7 84 84 SW 6 9 30.15 1021 10 16 0.00 0.00
9:53 am 09:53 Sunny 71 21.7 63 17.2 76 76 SW 9 15 30.15 1021 10 16 0.00 0.00
10:53 am 10:53 Sunny 73 22.8 63 17.2 71 71 SW 12 19 30.14 1021 10 16 0.00 0.00
11:53 am 11:53 Sunny 76 24.4 63 17.2 64 64 SW 14 22 30.13 1020 10 16 0.00 0.00
12:53 pm 12:53 Sunny 78 25.6 63 17.2 60 60 SSW 12 19 30.11 1020 10 16 0.00 0.00
1:53 pm 13:53 Sunny 79 26.1 63 17.2 58 58 WSW 13 20 30.10 1019 10 16 0.00 0.00
2:53 pm 14:53 Sunny 81 27.2 63 17.2 54 54 SW 14 22 30.09 1019 10 16 0.00 0.00
3:53 pm 15:53 Sunny 82 27.8 63 17.2 53 53 SSW 15 24 30.07 1018 10 16 0.00 0.00
4:53 pm 16:53 Sunny 82 27.8 63 17.2 53 53 SSW 15 24 30.05 1018 10 16 0.00 0.00
5:53 pm 17:53 Sunny 81 27.2 62 16.7 53 53 SSW 14 22 30.04 1017 10 16 0.00 0.00
6:53 pm 18:53 Sunny 80 26.7 62 16.7 54 54 SSW 12 19 30.02 1017 10 16 0.00 0.00
7:53 pm 19:53 Sunny 76 24.4 63 17.2 64 64 SSW 9 15 30.01 1016 10 16 0.00 0.00
8:53 pm 20:53 Clear 71 21.7 63 17.2 76 76 S 8 13 30.01 1016 10 16 0.00 0.00
9:53 pm 21:53 Clear 70 21.1 63 17.2 78 78 S 6 9 30.00 1016 10 16 0.00 0.00
10:53 pm 22:53 Partly Cloudy 70 21.1 63 17.2 78 78 S 10 17 29.99 1016 10 16 0.00 0.00
11:53 pm 23:53 Clear 70 21.1 63 17.2 78 78 S 10 17 29.99 1016 10 16 0.00 0.00

Powered by AerisWeather